TimePDT,TemperatureF,Dew PointF,Humidity,Sea Level PressureIn,VisibilityMPH,Wind Direction,Wind SpeedMPH,Gust SpeedMPH,PrecipitationIn,Events,Conditions,WindDirDegrees,DateUTC
12:53 AM,55.4,37.4,51,30.27,10.0,Calm,Calm,-,N/A,,Clear,0,2013-05-20 07:53:00
1:53 AM,54.0,37.9,55,30.26,10.0,NW,8.1,-,N/A,,Clear,320,2013-05-20 08:53:00
2:53 AM,52.0,37.9,59,30.27,10.0,Variable,4.6,-,N/A,,Clear,0,2013-05-20 09:53:00
3:53 AM,46.0,36.0,68,30.27,10.0,North,-9999.0,-,N/A,,Clear,0,2013-05-20 10:53:00
4:53 AM,41.0,35.6,81,30.27,10.0,West,5.8,-,N/A,,Clear,270,2013-05-20 11:53:00
5:53 AM,43.0,36.0,76,30.27,10.0,WSW,5.8,-,N/A,,Clear,250,2013-05-20 12:53:00
6:53 AM,50.0,37.4,62,30.27,10.0,West,4.6,-,N/A,,Clear,260,2013-05-20 13:53:00
7:53 AM,54.0,39.0,57,30.25,10.0,West,6.9,-,N/A,,Clear,270,2013-05-20 14:53:00
8:53 AM,59.0,37.9,46,30.24,10.0,Calm,Calm,-,N/A,,Clear,0,2013-05-20 15:53:00
9:53 AM,64.0,37.9,38,30.21,10.0,Calm,Calm,-,N/A,,Clear,0,2013-05-20 16:53:00
10:53 AM,66.9,39.0,36,30.19,10.0,Calm,Calm,-,N/A,,Clear,0,2013-05-20 17:53:00
11:53 AM,71.1,39.9,32,30.15,10.0,NE,5.8,-,N/A,,Clear,50,2013-05-20 18:53:00
12:53 PM,73.9,39.9,29,30.12,10.0,SE,8.1,-,N/A,,Clear,130,2013-05-20 19:53:00
1:53 PM,75.9,41.0,29,30.08,10.0,Variable,6.9,-,N/A,,Clear,0,2013-05-20 20:53:00
2:53 PM,78.1,39.0,25,30.05,10.0,East,9.2,16.1,N/A,,Clear,100,2013-05-20 21:53:00
3:53 PM,79.0,39.0,24,30.01,10.0,ESE,10.4,17.3,N/A,,Clear,120,2013-05-20 22:53:00
4:53 PM,79.0,37.0,22,29.97,10.0,SSE,5.8,-,N/A,,Partly Cloudy,150,2013-05-20 23:53:00
5:53 PM,78.1,36.0,22,29.94,10.0,ESE,5.8,-,N/A,,Partly Cloudy,110,2013-05-21 00:53:00
6:53 PM,77.0,35.6,22,29.91,10.0,ESE,3.5,-,N/A,,Partly Cloudy,120,2013-05-21 01:53:00
7:53 PM,73.9,37.9,27,29.88,10.0,ESE,3.5,-,N/A,,Partly Cloudy,120,2013-05-21 02:53:00
8:53 PM,66.9,37.9,34,29.86,10.0,South,3.5,-,N/A,,Partly Cloudy,190,2013-05-21 03:53:00
9:53 PM,57.9,42.1,56,29.85,10.0,Variable,3.5,-,N/A,,Clear,0,2013-05-21 04:53:00
10:53 PM,55.0,42.1,62,29.83,10.0,West,6.9,-,N/A,,Clear,270,2013-05-21 05:53:00
11:53 PM,53.1,39.9,61,29.81,10.0,WNW,6.9,-,N/A,,Clear,290,2013-05-21 06:53:00